Preview of NWS' New Version of Forecast
This preview is not operational and should not be used for support decisions.

Regional Weather Roundup (RWR)

Issued by National Weather Service (NWS)

                            
000
ASUS46 KSEW 192210
RWRWA 

WASHINGTON REGIONAL WEATHER ROUNDUP
NATIONAL WEATHER SERVICE SEATTLE WA
300 PM PDT MON AUG 19 2019

NOTE:"FAIR" INDICATES FEW OR NO CLOUDS BELOW 12,000 FEET WITH NO 
SIGNIFICANT WEATHER AND/OR OBSTRUCTIONS TO VISIBILITY.

WAZ507-509-555>559-192300-
SEATTLE, TACOMA, EVERETT, AND VICINITY
  
CITY           SKY/WX    TMP DP  RH WIND       PRES   REMARKS
EVERETT        MOSUNNY   69  54  58 NW8       30.04S                  
BOEING FIELD   PTSUNNY   74  51  44 W7        30.02S                  
RENTON         MOSUNNY   74  55  51 N9        30.01S                  
SEATAC AIRPORT MOSUNNY   75  52  44 W8        30.03S                  
JBLM-MCCHORD   MOSUNNY   74  59  57 NW10      30.02S                  
PUYALLUP       FAIR      75  54  46 VRB3      30.02S                  
BREMERTON      PTSUNNY   73  56  54 NE9       30.03S                  
JBLM-FT LEWIS  MOSUNNY   74  59  60 W3        30.01S                  
TACOMA NARROWS MOSUNNY   72  52  49 VRB6      30.01F                  
$$
 
WAZ001-503-506-510-514-515-192300-
NORTH INTERIOR
  
CITY           SKY/WX    TMP DP  RH WIND       PRES   REMARKS
BELLINGHAM     SUNNY     71  51  49 S9        30.03S                  
FRIDAY HARBOR  SUNNY     73  50  44 S9        30.04S                  
EASTSOUND      MOSUNNY   70  52  52 SW6       30.01F                  
PORT ANGELES   CLOUDY    69  50  50 VRB6      30.04F                  
EDIZ HOOK      CLOUDY    64  55  72 CALM      30.03F                  
PORT TOWNSEND  CLOUDY    68  55  64 VRB6      30.03S                  
NAS WHIDBEY    MOSUNNY   72  49  44 W6        30.07F                  
ARLINGTON      SUNNY     73  55  53 NW9       30.03S                  
BURLINGTON     SUNNY     77  52  41 VRB6      30.03S                  
$$
 
WAZ020-022-039-040-504-511-512-192300-
SOUTHWEST INTERIOR
  
CITY           SKY/WX    TMP DP  RH WIND       PRES   REMARKS
SHELTON        SUNNY     76  51  41 SW7       29.98F                  
OLYMPIA        PTSUNNY   74  52  46 E5        30.00F                  
CHEHALIS       FAIR      77  55  47 VRB6      30.01F                  
KELSO          SUNNY     74  56  53 W7        30.01F                  
VANCOUVER      SUNNY     76  52  43 W10       29.97F                  
SCAPPOOSE, OR  SUNNY     78  55  44 N9        29.96F                  
PORTLAND, OR   MOSUNNY   77  53  43 W8        29.97F                  
$$
 
WAZ021-516-517-192300-
WASHINGTON COAST
  
CITY           SKY/WX    TMP DP  RH WIND       PRES   REMARKS
FORKS          CLOUDY    68  53  58 W9        30.03S                  
HOQUIAM        SUNNY     68  58  70 SW13      30.03S                  
ASTORIA, OR    CLOUDY    69  56  62 NW8       30.02F                  
$$
 
WAZ019-023-024-040-567>569-192300-
CASCADE MOUNTAINS AND COLUMBIA GORGE
  
CITY           SKY/WX    TMP DP  RH WIND       PRES   REMARKS
STAMPEDE PASS  SUNNY     67  49  52 VRB7      30.07S                  
TROUTDALE, OR  SUNNY     78  54  43 SW7       29.96F                  
HOOD RIVER, OR CLEAR     81  50  34 W9G21     29.90S                  
THE DALLES, OR SUNNY     87  48  25 NW21G26   29.85F                  
$$

WAZ026-027-041>044-520-521-192300-
EAST SLOPES
  
CITY           SKY/WX    TMP DP  RH WIND       PRES   REMARKS
OMAK           SUNNY     90  38  16 SW12      29.84F                  
WENATCHEE      SUNNY     86  41  20 CALM      29.85F                  
ELLENSBURG     SUNNY     88  40  18 NW23      29.89S                  
YAKIMA         SUNNY     88  45  22 S7        29.86F                  
SUNNYSIDE ARPT CLEAR     87  54  32 E5        29.86S                  
YAKIMA TC      FAIR      88  40  18 S5        29.86F                  
$$

WAZ028-034-035-192300-
COLUMBIA BASIN
  
CITY           SKY/WX    TMP DP  RH WIND       PRES   REMARKS
EPHRATA        SUNNY     88  43  20 S8        29.86S                  
MOSES LAKE     SUNNY     89  47  23 S9        29.87F                  
PASCO          SUNNY     92  49  22 MISG      29.85F                  
RICHLAND ARPT  CLEAR     92  48  21 CALM      29.83                   
HERMISTON, OR  SUNNY     90  48  23 W8        29.85F                  
$$

WAZ036>038-192300-
NORTHEAST WASHINGTON
  
CITY           SKY/WX    TMP DP  RH WIND       PRES   REMARKS
SPOKANE GEIGER MOSUNNY   84  44  24 SW13      29.93S                  
SPOKANE FELTS  MOSUNNY   85  42  22 W6        29.91F                  
FAIRCHILD AFB  MOSUNNY   83  42  23 S9        29.93F                  
COEURDALENE,ID SUNNY     85  46  25 SW9       29.93F                  
DEER PARK      PTSUNNY   85  46  25 S12       29.91F                  
$$

WAZ029>033-192300-
SOUTHEAST WASHINGTON
  
CITY           SKY/WX    TMP DP  RH WIND       PRES   REMARKS
PULLMAN        SUNNY     83  42  23 W7        29.97F                  
LEWISTON, ID   SUNNY     91  43  18 VRB7      29.87F                  
WALLA WALLA    SUNNY     88  47  24 SW15G21   29.88F                  
PENDLETON, OR  SUNNY     88  43  20 W12G18    29.89F                  
$$